User: anonymous   Login
Location: Theydon Bois
(51.6750°N, 0.1050°E)
Time: 01:21:43
(UTC+01:00)
Language:

NOAA 11 - Orbit

View from above orbital plane
View from above orbital plane
View from above satellite
View from above satellite

Ground track
Ground track

The orbit data is extracted from the following two-line orbital elements,

1 19531U 88089A   17290.36320229 -.00000013  00000-0  14495-4 0  9990
2 19531  98.5371 343.7388 0012047  51.4769 308.7484 14.15215176500031
Epoch (UTC): 17 October 2017 08:43:00
Eccentricity: 0.0012047
inclination: 98.5371°
perigee height: 833 km
apogee height: 850 km
right ascension of ascending node: 343.7388°
argument of perigee: 51.4769°
revolutions per day: 14.15215176
mean anomaly at epoch: 308.7484°
orbit number at epoch: 50003

The dashed part of the orbit path shows where the satellite is in the earth's shadow,  

DLR